星链-1642 (STARLINK-1642 )

导读 | 豆包AI

STARLINK-1642是美国太空探索技术公司星链星座的卫星,于2020年8月18日发射升空,归属星链互联网星座组网行列。星链项目旨在构建全球卫星互联网,该卫星承担低轨通信组网任务,为全球偏远、无基础设施覆盖区域提供宽带互联网接入服务,推动全球互联网络覆盖的普及。

Basic Information
目录编号:
46154
目录名称:
STARLINK-1642
国际标识:
2020-057AP
轨道中心:
EARTH
卫星名称:
星链-1642
卫星全名:
星链-1642 (STARLINK-1642 )
卫星状态:
已陨落 最后检测时间 2026-02-20
发射日期:
2020-08-18 UTC
国别 :
美国 (US)
星等 :
--
Orbit Information
数据来源 国际轨道数据
星历时间: 2026-02-20T09:41:06+0800
轨道信息已过期69天
半长轴: 6528.529km
偏心率: 0.0006507
轨道倾角: 53.021°
近地点辐角 244.315°
升交点赤经 318.549°
平近点角 115.722°
近地点: 146.143km
远地点: 154.641km
周期: 87.495分钟
每日圈数: 16.458106
Detailed Information
固有亮度:
5
最大亮度:
2.5
卫星平台:
Starlink V1.0
覆盖范围:
全球
运营商:
太空探索技术公司
运营商所在国:
美国
制造商(研发单位):
太空探索技术公司
制造商所在国:
美国
使用方式:
暂无
Satellite Introduction
星链(Starlink)计划是由太空探索技术公司(SpaceX)提出的一个巨型低轨卫星互联网星座项目,计划在2019年至2024年间在太空搭建由约1.2万颗卫星组成的“星链”网络,其中1584颗将部署在地球上空550千米处的近地轨道,并从2020年开始工作。该卫星仍在工作。